Flag for Aruba Weather past 2 weeks in Oranjestad, Aruba

Now
79 °F

Passing clouds.


Feels Like: 82 °F
Forecast: 78 / 86 °F
Wind: 14 mph from East

Location: Queen Beatrix Airport - Aruba

Current Time: Mar 7, 2015 at 1:05:13 AM

Latest Report: Mar 7, 2015 at 12:00 AM


Visibility: N/A

Pressure: 29.95 "Hg

Humidity: 79%

Dew point: 72 °F

Location of OranjestadLocation

Historic Weather in Oranjestad — Graph

°F

Oranjestad temperature yesterday

Maximum temperature yesterday: 88 °F (at 2:00 PM)
Minimum temperature yesterday: 79 °F (at 1:00 AM)
Average temperature yesterday: 82 °F

Past Weeks' High & Low Weather Summary

 TemperatureHumidityPressure
High90 °F (Feb 20, 2:00 PM)94% (Mar 1, 11:00 PM)30.04 "Hg (Mar 1, 11:00 PM)
Low73 °F (Mar 5, 5:00 AM)55% (Mar 1, 12:00 PM)29.83 "Hg (Feb 24, 4:00 PM)
Average82 °F73%29.92 "Hg
* Reported Midnight between Feb 19 and Feb 20 — Midnight between Mar 6 and Mar 7, Oranjestad, Weather by CustomWeather, © 2015

Note: Actual official high and low records may vary slightly from our data, if they occured in-between our weather recording intervals... More about our weather records

Advertising

Oranjestad weather history for previous 24 hours

 ConditionsComfort  
Time TempWeatherWind HumidityBarometerVisibility
12:00 AM
Sat, Mar 7
79 °FPassing clouds.14 mph79%29.95 "HgN/A
11:00 PM
Fri, Mar 6
79 °FPassing clouds.17 mph74%29.95 "HgN/A
10:00 PM81 °FPassing clouds.17 mph74%29.95 "HgN/A
9:00 PM81 °FPassing clouds.20 mph74%29.95 "HgN/A
8:00 PM81 °FPassing clouds.18 mph74%29.92 "HgN/A
7:00 PM81 °FPassing clouds.20 mph70%29.92 "HgN/A
6:00 PM82 °FPassing clouds.22 mph66%29.89 "HgN/A
5:00 PM84 °FPassing clouds.24 mph62%29.89 "HgN/A
4:00 PM86 °FPassing clouds.28 mph59%29.89 "HgN/A
3:00 PM86 °FPassing clouds.28 mph59%29.89 "HgN/A
2:00 PM88 °FPassing clouds.25 mph59%29.92 "HgN/A
1:00 PM86 °FScattered clouds.28 mph62%29.95 "HgN/A
12:00 PM86 °FPassing clouds.26 mph59%29.98 "HgN/A
11:00 AM86 °FPassing clouds.28 mph59%29.98 "HgN/A
10:00 AM84 °FPassing clouds.26 mph62%29.98 "HgN/A
9:00 AM82 °FPassing clouds.26 mph66%29.98 "HgN/A
8:00 AM81 °FPassing clouds.20 mph70%29.95 "HgN/A
7:00 AM79 °FPassing clouds.18 mph74%29.95 "HgN/A
6:00 AM79 °FPassing clouds.17 mph74%29.92 "HgN/A
5:00 AM79 °FPassing clouds.20 mph74%29.92 "HgN/A
4:00 AM79 °FPassing clouds.17 mph79%29.89 "HgN/A
3:00 AM79 °FPassing clouds.23 mph74%29.92 "HgN/A
2:00 AM79 °FPassing clouds.21 mph79%29.92 "HgN/A
1:00 AM79 °FPassing clouds.23 mph74%29.95 "HgN/A
Weather by CustomWeather, © 2015

See weather overviewHow to use our weather pages